GW2918 Weather Reports


time (UTC)temp
F
wind
direction
speed
knots
gust
knots
rain 1hr
in
rain 24hr
in
rain mn
in
humidity
%
barometer
mb
20260901124446 69 185 0.9 3.5 0.05 0.03 0.03 99 1017.9
20260901123441 69 222 2.6 3.5 0.00 0.02 0.02 99 1018.1
20260901122439 69 261 1.7 4.3 0.05 0.02 0.02 99 1017.9
20260901121439 68 200 1.7 4.3 0.00 0.01 0.01 99 1018.0
20260901120434 68 220 1.7 3.5 0.00 0.01 0.01 99 1018.0
20260901115430 68 217 1.7 2.6 0.00 0.01 0.01 99 1018.0
20260901114429 68 177 0.9 1.7 0.02 0.01 0.01 99 1017.9
20260901113426 68 249 0.0 4.3 0.00 0.01 0.01 99 1017.7
20260901112422 68 88 1.7 3.5 0.00 0.01 0.01 99 1017.6
20260901111422 68 213 7.0 7.8 0.00 0.01 0.01 99 1017.9
20260901110416 68 234 2.6 4.3 0.00 0.01 0.01 99 1017.9
20260901105414 68 348 0.0 4.3 0.00 0.01 0.01 99 1017.9
20260901104410 68 211 2.6 3.5 0.00 0.01 0.01 99 1017.7
20260901103405 68 205 1.7 2.6 0.00 0.01 0.01 99 1017.8
20260901102400 68 142 0.9 2.6 0.00 0.01 0.01 99 1017.9
20260901101356 68 235 3.5 3.5 0.00 0.01 0.01 99 1017.5
20260901100356 68 221 1.7 4.3 0.00 0.01 0.01 99 1017.7
20260901095353 68 194 0.0 1.7 0.00 0.01 0.01 99 1017.6
20260901094348 68 89 0.0 1.7 0.00 0.01 0.01 99 1017.8
20260901093348 68 212 1.7 3.5 0.00 0.01 0.01 99 1017.8
20260901092345 68 192 0.0 3.5 0.00 0.01 0.01 99 1017.9
20260901091341 68 143 0.0 2.6 0.00 0.01 0.01 99 1018.3
20260901090341 68 210 2.6 3.5 0.00 0.01 0.01 99 1018.3
20260901085338 68 188 0.0 3.5 0.00 0.01 0.01 99 1018.3
20260901084337 68 200 0.0 1.7 0.02 0.01 0.01 99 1018.3
20260901083332 68 242 1.7 2.6 0.00 0.00 0.00 99 1018.4
20260901082332 68 196 0.0 1.7 0.00 0.00 0.00 99 1018.5
20260901081327 68 242 1.7 2.6 0.00 0.00 0.00 99 1018.5
20260901080328 68 205 0.9 2.6 0.00 0.00 0.00 99 1018.5
20260901075323 68 210 1.7 1.7 0.00 0.00 0.00 99 1018.6
20260901074318 68 225 0.0 1.7 0.00 0.00 0.00 99 1018.6
20260901073315 68 191 1.7 2.6 0.00 0.00 0.00 99 1018.9
20260901072311 68 213 1.7 2.6 0.00 0.00 0.00 99 1018.7
20260901071310 68 217 0.0 3.5 0.00 0.00 0.00 99 1018.9
20260901070305 68 156 0.0 1.7 0.00 0.00 0.00 99 1018.7
20260901065306 68 206 1.7 2.6 0.00 0.00 0.00 99 1019.0
20260901064303 68 202 1.7 2.6 0.00 0.00 0.00 99 1019.0
20260901063302 67 138 0.0 3.5 0.02 0.00 0.00 99 1018.8
20260901062259 67 187 1.7 1.7 0.00 0.00 0.00 99 1019.1
20260901061255 67 151 0.9 2.6 0.00 0.00 0.00 99 1019.0
20260901060251 67 217 0.0 2.6 0.00 0.00 0.00 99 1019.1
20260901055248 67 253 0.9 2.6 0.00 0.00 0.00 99 1019.3
20260901054247 67 197 0.9 1.7 0.00 0.00 0.00 99 1019.0
20260901053243 67 214 1.7 2.6 0.00 0.00 0.00 99 1019.5
20260901052240 67 175 0.9 1.7 0.00 0.00 0.00 99 1019.5
20260901051240 67 228 0.0 2.6 0.00 0.00 0.00 99 1019.2
20260901050236 67 166 0.9 1.7 0.00 0.00 0.00 99 1019.4
20260901045232 67 164 0.9 1.7 0.00 0.00 0.00 99 1019.4
20260901044229 67 218 1.7 1.7 0.00 0.00 0.00 99 1019.5
20260901043226 67 113 0.0 1.7 0.00 0.00 0.00 99 1019.5
20260901042226 67 175 0.0 2.6 0.00 0.00 0.00 99 1019.7
20260901041222 67 144 0.9 2.6 0.00 0.00 0.00 99 1019.6
20260901040222 67 164 0.9 1.7 0.00 0.00 0.00 99 1019.7
20260901035220 67 294 0.0 1.7 0.00 0.13 0.13 99 1019.5
20260901034220 67 217 0.0 2.6 0.00 0.13 0.13 99 1019.4
20260901033219 67 187 0.0 2.6 0.00 0.13 0.13 99 1019.5
20260901032218 67 209 2.6 3.5 0.00 0.13 0.13 99 1019.4
20260901031215 67 193 1.7 2.6 0.00 0.13 0.13 99 1019.4
20260901030210 67 196 1.7 1.7 0.00 0.13 0.13 99 1019.3
20260901025205 67 230 1.7 2.6 0.00 0.13 0.13 99 1019.6
20260901024204 67 210 0.0 2.6 0.02 0.13 0.13 99 1019.5
20260901023204 67 144 0.9 3.5 0.00 0.12 0.12 99 1019.8
20260901022200 67 235 2.6 5.2 0.02 0.12 0.12 99 1019.9
20260901021156 67 185 0.9 1.7 0.05 0.11 0.11 99 1020.4
20260901020153 67 190 2.6 4.3 0.02 0.11 0.11 99 1020.3
20260901015148 67 210 0.0 1.7 0.02 0.10 0.10 99 1020.4
20260901014144 67 195 0.0 3.5 0.00 0.10 0.10 99 1020.4
20260901013142 67 184 0.9 2.6 0.07 0.10 0.10 99 1020.3
20260901012137 67 195 2.6 2.6 0.02 0.09 0.09 99 1020.4
20260901011132 67 217 0.9 2.6 0.00 0.08 0.08 99 1020.3
20260901010132 67 206 1.7 3.5 0.00 0.08 0.08 99 1020.1
20260901005127 67 155 0.9 3.5 0.00 0.08 0.08 99 1020.4
20260901004127 67 197 2.6 2.6 0.00 0.08 0.08 99 1020.1
20260901003127 67 212 2.6 3.5 0.00 0.08 0.08 99 1019.7
20260901002122 67 211 4.3 4.3 0.00 0.08 0.08 99 1019.4
20260901001118 67 207 3.5 4.3 0.00 0.08 0.08 99 1019.4
20260901000115 67 171 3.5 8.7 0.00 0.08 0.08 99 1019.7
20260831235116 67 161 0.9 2.6 0.00 0.08 0.08 99 1019.8
20260831234111 68 195 1.7 6.1 0.00 0.08 0.08 99 1019.6
20260831233107 67 206 1.7 4.3 0.00 0.08 0.08 99 1019.8
20260831232104 68 199 3.5 5.2 0.00 0.08 0.08 99 1019.8
20260831231101 68 169 0.0 3.5 0.00 0.08 0.08 99 1019.9
20260831230057 68 209 2.6 4.3 0.00 0.08 0.08 99 1019.9
20260831225053 68 202 2.6 4.3 0.00 0.08 0.08 99 1020.1
20260831224049 68 202 4.3 7.8 0.00 0.08 0.08 99 1020.4
20260831223046 68 156 1.7 3.5 0.00 0.08 0.08 98 1020.1
20260831222042 68 183 0.9 5.2 0.00 0.08 0.08 98 1020.1
20260831221038 68 186 2.6 7.8 0.00 0.08 0.08 97 1020.1
20260831220035 69 208 3.5 4.3 0.00 0.08 0.08 97 1020.3
20260831215031 69 193 0.0 6.1 0.00 0.08 0.08 97 1020.5
20260831214030 68 179 1.7 3.5 0.00 0.08 0.08 98 1020.5
20260831213027 68 172 1.7 4.3 0.00 0.08 0.08 98 1020.4
20260831212024 68 272 1.7 7.0 0.00 0.08 0.08 98 1020.7
20260831211024 68 157 1.7 3.5 0.00 0.08 0.08 98 1020.8
20260831210021 68 216 3.5 4.3 0.00 0.08 0.08 98 1020.6
20260831205018 68 216 3.5 5.2 0.00 0.08 0.08 97 1020.8
20260831204016 68 199 3.5 8.7 0.00 0.08 0.08 97 1020.7
20260831203015 68 201 3.5 11.3 0.00 0.08 0.08 97 1020.5
20260831202015 67 156 1.7 5.2 0.00 0.08 0.08 99 1020.5
20260831201015 66 156 0.9 7.8 0.00 0.08 0.08 99 1020.8
20260831200012 66 179 1.7 7.8 0.00 0.08 0.08 99 1020.6
20260831195007 67 190 1.7 5.2 0.00 0.08 0.08 99 1020.8
20260831194002 67 192 2.6 7.0 0.00 0.08 0.08 99 1020.7
20260831192958 67 195 0.0 6.1 0.00 0.08 0.08 99 1021.0
20260831191954 67 197 1.7 10.4 0.00 0.08 0.08 98 1021.1
20260831190952 68 197 3.5 5.2 0.00 0.08 0.08 99 1021.1
20260831185951 67 201 4.3 5.2 0.00 0.08 0.08 99 1021.2
20260831184948 66 204 1.7 1.7 0.00 0.08 0.08 99 1021.1
20260831183944 66 200 5.2 5.2 0.00 0.08 0.08 99 1021.5
20260831182943 66 205 2.6 5.2 0.00 0.08 0.08 99 1021.6
20260831181939 65 207 1.7 5.2 0.00 0.08 0.08 99 1021.6
20260831180935 66 202 2.6 3.5 0.00 0.08 0.08 99 1021.5
20260831175934 65 141 1.7 1.7 0.05 0.08 0.08 99 1022.3
20260831174932 65 185 1.7 4.3 0.12 0.07 0.07 99 1022.0
20260831173927 65 188 3.5 4.3 0.05 0.06 0.06 99 1022.3
20260831172927 65 152 0.9 1.7 0.02 0.04 0.04 99 1022.4
20260831171923 65 175 0.9 6.1 0.02 0.04 0.04 99 1022.4
20260831170922 65 219 3.5 4.3 0.02 0.04 0.04 99 1022.6
20260831165920 65 185 1.7 5.2 0.00 0.03 0.03 99 1022.5
20260831164918 65 233 3.5 6.1 0.05 0.03 0.03 99 1022.6
20260831163915 65 199 1.7 3.5 0.00 0.02 0.02 99 1022.8
20260831162914 65 192 1.7 3.5 0.00 0.02 0.02 99 1022.3
20260831161914 66 199 1.7 3.5 0.00 0.02 0.02 99 1022.4
20260831160912 66 177 1.7 3.5 0.00 0.02 0.02 99 1022.7
20260831155908 66 214 1.7 5.2 0.00 0.02 0.02 99 1022.7
20260831154903 66 197 1.7 4.3 0.00 0.02 0.02 99 1022.5
20260831153903 66 184 0.0 1.7 0.00 0.02 0.02 99 1022.5
20260831152901 65 201 1.7 3.5 0.00 0.02 0.02 99 1022.6
20260831151857 65 187 1.7 7.0 0.00 0.02 0.02 99 1022.7
20260831150857 66 146 0.0 2.6 0.00 0.02 0.02 99 1022.8
20260831145852 66 208 0.0 3.5 0.00 0.02 0.02 99 1022.6
20260831144850 65 185 1.7 4.3 0.00 0.02 0.02 99 1022.6
20260831143846 65 148 0.0 3.5 0.00 0.02 0.02 99 1022.5
20260831142842 64 186 1.7 5.2 0.00 0.02 0.02 99 1022.6
20260831141837 64 183 0.0 1.7 0.00 0.02 0.02 99 1022.4
20260831140833 64 141 1.7 1.7 0.00 0.02 0.02 99 1022.5
20260831135832 64 159 0.0 4.3 0.00 0.02 0.02 99 1022.7
20260831134828 64 190 1.7 3.5 0.00 0.02 0.02 99 1022.5
20260831133824 64 175 0.9 0.9 0.00 0.02 0.02 99 1022.5
20260831132819 64 168 0.0 1.7 0.00 0.02 0.02 99 1022.5
20260831131814 64 209 0.0 1.7 0.00 0.02 0.02 99 1022.7
20260831130811 64 0 0.0 1.7 0.00 0.02 0.02 99 1022.4
20260831125806 64 170 0.0 1.7 0.00 0.02 0.02 99 1022.4